INTELSAT 901 (IS-901) (26824 NORAD) Tracking and Keplerian Element Data

This shows tracking and keplerian element data for the satellite.

Feedback or suggestion? Click here.




ElementValue
Catalog26824
NameINTELSAT 901 (IS-901)
Epoch Orbit7430
Epoch Day270.10118944
Epoch Year2021
RAAN148.6816
Inclination0.0188
Eccentricity0.0001159
Argument of Perigee64.9106
Mean Anonmoly161.4712
Mean Motion1.00274924
Decay Rate-2.03E-06
L11 26824U 01024A 21270.10118944 -.00000203 00000-0 00000+0 0 9994
L22 26824 0.0188 148.6816 0001159 64.9106 161.4712 1.00274924 74302

Live tracking and technical data element details for INTELSAT 901 (IS-901) (NORAD 26824). INTELSAT 901 (IS-901) can be tracked NOW for your location showing map with azimuth and elevation plus other details from your city location.

Track the satellite on the map from your city or location and see movement details for azimuth, elevation, latitude, longitude, range, height, and movement on the map or in text.







IsCatalogInMostPopularTable: catalog: 26824, numindb: 584
Update: records affected: 1



GetName: 26824 INTELSAT 901 (IS-901)

Hit Count: updated at: Tue, 28 Sep 2021 15:37:16 GMT